CZ-6A DEB, 56666

Orbit data source: Space-Track

CZ-6A DEB, 56666 is space debris in SSO originally from a launch on Fri, 11 Nov 2022 UTC launched from the Taiyaun Space Center, China (TSC). Debris objects in space refer to the collection of defunct objects orbiting the Earth. Examples of debris include non-operational satellites, rocket bodies, and fragments generated from explosions, collisions, or faulty payload assembly.

Loading next visibility...
Identifier
56666, 2022-151AGS
Orbit
SSO
Country
Flag of CNCN / PRC
Related business
Manufacturer
SAST
Mission
Spacecraft
Bus & Motor
Unknown
Mass
Unknown
Launch date (UTC)
2022-11-11 (4 years ago)
Launch vehicle
Unknown
Launch site
Taiyaun Space Center, China (TSC)
Object type
Payload
Rocket body
Debris
Shape & HBR
Unknown shape, 0.1 m
Radar Cross Section
Small (<0.1 m²)

Expand to show TLE details & history
Last TLE update: 10 hours ago

TLE from 10 hours ago
0 CZ-6A DEB
1 56666U 22151AGS 26236.40669958  .00001311  00000-0  37955-3 0  9994
2 56666  98.7266 298.7396 0075492  81.0032 279.9693 14.44589334175243
Epoch: 2026-08-24T09:45Z
TLE epoch observation values (Epoch: 2026-08-24T09:45:38.843Z)
Latitude
-0.00001°
Longitude
179.6389°
Altitude
737.409 km
Speed
7.491 km/s
True Right ascension
19h 54m 57s
True Declination
0° 00' 00"
Sunlit
Object was in full shadow at epoch
Visualization orbit readout
Latitude
Unknown
Longitude
Unknown
Altitude
Unknown
Speed
Unknown
Apparent Right ascension
Unknown
Apparent Declination
Unknown
Sunlit
N/A
Visualization observer readout
Local Sidereal Time
10:53:13
Azimuth
Unknown
Elevation
Unknown
Doppler factor
Unknown
Orbital elements
Apogee altitude
794.242 km
Perigee altitude
686.762 km
Semi-major axis
7,118.639 km
Eccentricity
0.00755
Inclination
98.7266°
RAAN
298.7396°
Arg. of periapsis
81.0032°
True anomaly
279.11592°
Mean anomaly
279.9693°
Eccentric anomaly
279.54275°
Mean motion
3.61366 °/min
Orbital period
99.62 mins
BSTAR
0.00037955
Loading maneuver chart data...
Computing Atmospheric mass density...

Documentation

Showing up to 5 results
|